Gulkana, AK

4:13 AM AKDT on July 28, 2017 (GMT -0800)
Gulkana

Weather History for PAGK - March, 2014

Change the Weather History Date:

Sunday, March 23, 2014

  Actual Average Record
Temperature  
Mean Temperature 10 °F -  
Max Temperature 30 °F 31 °F 46 °F (1965)
Min Temperature -9 °F 6 °F -27 °F (1959)
Degree Days  
Heating Degree Days 54    
Moisture  
Dew Point -2 °F    
Average Humidity 58    
Maximum Humidity 83    
Minimum Humidity 23    
Precipitation  
Precipitation 0.00 in - - ()
Sea Level Pressure  
Sea Level Pressure 30.63 in    
Wind  
Wind Speed 2 mph (South)    
Max Wind Speed 6 mph    
Max Gust Speed -    
Visibility 10 miles    
Events      
Averages and records for this station are not official NWS values.
T = Trace of Precipitation, MM = Missing Value Source: NWS Daily Summary

Daily Weather History Graph

Daily Weather History Graph

Search for Another Location

Airport or City:

Trip Planner

Search our weather history database for the weather conditions in past years. The results will help you decide how hot, cold, wet, or windy it might be!

Date:

Astronomy

Mar. 23, 2014 Rise Set
Actual Time 7:32 AM AKDT 8:05 PM AKDT
Civil Twilight 6:47 AM AKDT 8:50 PM AKDT
Nautical Twilight 5:52 AM AKDT 9:45 PM AKDT
Astronomical Twilight 4:51 AM AKDT 10:48 PM AKDT
Moon 4:02 AM AKDT (3/23) 10:52 AM AKDT (3/23)
Length of Visible Light 14h 03m
Length of Day
12h 33m
Waning Gibbous, 53% of the Moon is Illuminated
Mar 23
Waning Gibbous
Mar 23
Last Quarter
Mar 30
New
Apr 7
First Quarter
Apr 14
Full

Hourly Weather History & Observations

Time (AKDT) Temp. Windchill Dew Point Humidity Pressure Visibility Wind Dir Wind Speed Gust Speed Precip Events Conditions
12:53 AM 1.9 °F -5.6 °F -4.0 °F 76% 30.66 in 10.0 mi South 3.5 mph - N/A   Clear
1:53 AM -0.9 °F - -6.0 °F 79% 30.67 in 10.0 mi Calm Calm - N/A   Clear
2:53 AM -4.0 °F - -9.0 °F 79% 30.68 in 10.0 mi Calm Calm - N/A   Clear
3:53 AM -6.0 °F - -11.0 °F 79% 30.69 in 10.0 mi Calm Calm - N/A   Clear
4:53 AM -6.0 °F -16.9 °F -9.9 °F 83% 30.70 in 10.0 mi NW 4.6 mph - N/A   Clear
5:53 AM -7.1 °F -15.9 °F -13.0 °F 75% 30.70 in 10.0 mi NW 3.5 mph - N/A   Clear
6:53 AM -9.0 °F - -14.1 °F 79% 30.70 in 10.0 mi Calm Calm - N/A   Clear
7:53 AM -9.0 °F -18.2 °F -14.1 °F 79% 30.71 in 10.0 mi NNW 3.5 mph - N/A   Clear
8:53 AM -0.9 °F -11.0 °F -7.1 °F 75% 30.72 in 10.0 mi NW 4.6 mph - N/A   Clear
9:53 AM 7.0 °F - -2.9 °F 64% 30.70 in 10.0 mi Calm Calm - N/A   Clear
10:53 AM 8.1 °F - -0.9 °F 67% 30.69 in 10.0 mi Calm Calm - N/A   Clear
11:53 AM 14.0 °F - 1.0 °F 56% 30.67 in 10.0 mi Calm Calm - N/A   Clear
12:53 PM 17.1 °F - 1.9 °F 52% 30.67 in 10.0 mi Calm Calm - N/A   Clear
1:53 PM 21.9 °F - 3.9 °F 46% 30.65 in 10.0 mi Calm Calm - N/A   Clear
2:53 PM 24.1 °F 19.7 °F 3.9 °F 42% 30.63 in 10.0 mi SE 3.5 mph - N/A   Clear
3:53 PM 27.0 °F - 3.9 °F 37% 30.61 in 10.0 mi Calm Calm - N/A   Clear
4:53 PM 28.0 °F - 3.9 °F 36% 30.58 in 10.0 mi Calm Calm - N/A   Clear
5:53 PM 28.0 °F - 3.9 °F 36% 30.56 in 10.0 mi Calm Calm - N/A   Clear
6:53 PM 27.0 °F 21.6 °F 6.1 °F 41% 30.55 in 10.0 mi SSE 4.6 mph - N/A   Clear
7:53 PM 24.1 °F 18.2 °F 3.9 °F 42% 30.54 in 10.0 mi South 4.6 mph - N/A   Clear
8:53 PM 19.9 °F 13.4 °F 3.0 °F 48% 30.52 in 10.0 mi SSE 4.6 mph - N/A   Clear
9:53 PM 17.1 °F 8.7 °F 1.9 °F 52% 30.50 in 10.0 mi SSE 5.8 mph - N/A   Clear
10:53 PM 12.0 °F - 1.9 °F 64% 30.51 in 10.0 mi Calm Calm - N/A   Clear
11:53 PM 6.1 °F - -2.0 °F 69% 30.51 in 10.0 mi Calm Calm - N/A   Clear